KQ4LLM Weather Reports


time (UTC)temp
F
wind
direction
speed
knots
gust
knots
rain 1hr
in
rain 24hr
in
rain mn
in
humidity
%
barometer
mb
20260504050340 52 132 0.0 0.0 0.00 0.00 0.00 73
20260504045837 52 132 0.0 0.0 0.00 0.00 0.00 72
20260504045332 52 133 0.0 0.0 0.00 0.00 0.00 72
20260504044829 52 133 0.0 0.0 0.00 0.00 0.00 74
20260504044326 52 133 0.0 0.0 0.00 0.00 0.00 72
20260504043824 53 133 0.0 0.0 0.00 0.00 0.00 72
20260504043320 53 133 0.0 0.0 0.00 0.00 0.00 71
20260504042818 53 133 0.0 0.0 0.00 0.00 0.00 71
20260504042314 53 133 0.0 0.0 0.00 0.00 0.00 72
20260504041811 53 133 0.0 0.0 0.00 0.00 0.00 69
20260504041307 53 133 0.0 0.0 0.00 0.00 0.00 68
20260504040803 54 133 0.0 0.0 0.00 0.00 0.00 72
20260504040301 54 133 0.0 0.0 0.00 0.00 0.00 72
20260504035756 54 133 0.0 0.0 0.00 0.00 0.00 70
20260504035254 54 133 0.0 0.0 0.00 0.00 0.00 68
20260504034751 54 133 0.0 0.0 0.00 0.00 0.00 67
20260504034248 55 133 0.0 0.0 0.00 0.00 0.00 68
20260504033746 55 133 0.0 0.0 0.00 0.00 0.00 69
20260504033243 55 133 0.0 0.0 0.00 0.00 0.00 67
20260504032740 55 133 0.0 0.0 0.00 0.00 0.00 67
20260504032237 55 133 0.0 0.0 0.00 0.00 0.00 67
20260504031733 55 133 0.0 0.0 0.00 0.00 0.00 67
20260504031231 55 133 0.0 0.0 0.00 0.00 0.00 67
20260504030727 55 133 0.0 0.0 0.00 0.00 0.00 67
20260504030224 55 133 0.0 0.0 0.00 0.00 0.00 68
20260504025721 56 133 0.0 0.0 0.00 0.00 0.00 68
20260504025217 56 133 0.0 0.0 0.00 0.00 0.00 67
20260504024714 56 133 0.0 0.0 0.00 0.00 0.00 67
20260504024211 56 133 0.0 0.0 0.00 0.00 0.00 66
20260504023708 56 133 0.0 0.0 0.00 0.00 0.00 66
20260504023203 56 133 0.0 0.0 0.00 0.00 0.00 67
20260504022700 56 133 0.0 0.0 0.00 0.00 0.00 65
20260504022156 56 133 0.0 0.0 0.00 0.00 0.00 65
20260504021654 56 132 0.0 0.0 0.00 0.00 0.00 65
20260504021150 56 132 0.0 0.0 0.00 0.00 0.00 65
20260504020647 56 132 0.0 0.0 0.00 0.00 0.00 64
20260504020143 57 132 0.0 0.0 0.00 0.00 0.00 63
20260504015641 57 132 0.0 0.0 0.00 0.00 0.00 63
20260504015137 57 132 0.0 0.0 0.00 0.00 0.00 63
20260504014632 57 132 0.0 0.0 0.00 0.00 0.00 63
20260504014130 57 132 0.0 0.0 0.00 0.00 0.00 62
20260504013628 57 132 0.0 0.0 0.00 0.00 0.00 60
20260504013124 57 132 0.0 0.0 0.00 0.00 0.00 59
20260504012621 57 132 0.0 0.0 0.00 0.00 0.00 58
20260504012120 58 132 0.0 0.0 0.00 0.00 0.00 57
20260504011616 58 132 0.0 0.0 0.00 0.00 0.00 57
20260504011112 58 132 0.0 0.0 0.00 0.00 0.00 56
20260504010608 59 132 0.0 0.0 0.00 0.00 0.00 55
20260504010104 59 132 0.0 0.0 0.00 0.00 0.00 53
20260504005601 59 132 0.0 0.0 0.00 0.00 0.00 53
20260504005058 60 132 0.0 0.0 0.00 0.00 0.00 52
20260504004556 60 132 0.0 0.0 0.00 0.00 0.00 51
20260504004053 60 132 0.0 0.0 0.00 0.00 0.00 53
20260504003549 60 132 0.0 0.0 0.00 0.00 0.00 49
20260504003046 61 133 0.0 0.0 0.00 0.00 0.00 49
20260504002543 61 133 0.0 0.0 0.00 0.00 0.00 48
20260504002040 62 133 0.0 0.0 0.00 0.00 0.00 48
20260504001538 62 133 0.0 0.0 0.00 0.00 0.00 49
20260504001034 62 133 0.0 0.0 0.00 0.00 0.00 47
20260504000531 63 133 0.0 0.0 0.00 0.00 0.00 47
20260504000029 63 133 0.0 0.0 0.00 0.00 0.00 45
20260503235527 63 133 0.0 0.0 0.00 0.00 0.00 45
20260503235023 63 132 0.0 0.0 0.00 0.00 0.00 44
20260503234521 64 132 0.0 0.0 0.00 0.00 0.00 45
20260503234019 64 133 0.0 0.9 0.00 0.00 0.00 46
20260503233515 64 126 0.0 0.0 0.00 0.00 0.00 48
20260503233006 64 138 0.0 0.0 0.00 0.00 0.00 46
20260503232503 65 127 0.0 0.0 0.00 0.00 0.00 45
20260503232000 65 125 0.0 0.9 0.00 0.00 0.00 44
20260503231457 65 142 0.0 0.9 0.00 0.00 0.00 44
20260503230954 65 128 0.0 0.0 0.00 0.00 0.00 44
20260503230450 65 119 0.0 0.0 0.00 0.00 0.00 43
20260503225948 66 140 0.0 0.9 0.00 0.00 0.00 44
20260503225444 66 139 0.0 0.0 0.00 0.00 0.00 43
20260503224940 66 142 0.0 0.9 0.00 0.00 0.00 43
20260503224437 66 139 0.9 0.9 0.00 0.00 0.00 40
20260503223935 66 125 0.0 0.9 0.00 0.00 0.00 41
20260503223433 66 143 0.9 0.9 0.00 0.00 0.00 46
20260503222928 66 222 0.0 0.9 0.00 0.00 0.00 45
20260503222427 66 123 0.0 0.0 0.00 0.00 0.00 42
20260503221925 66 139 0.0 0.9 0.00 0.00 0.00 45
20260503221423 66 134 0.0 0.0 0.00 0.00 0.00 43
20260503220919 66 119 0.9 0.9 0.00 0.00 0.00 43
20260503220415 66 135 0.0 1.7 0.00 0.00 0.00 43
20260503215913 67 128 0.0 0.9 0.00 0.00 0.00 44
20260503215410 67 145 0.9 0.9 0.00 0.00 0.00 43
20260503214907 67 126 0.9 1.7 0.00 0.00 0.00 41
20260503214404 67 146 0.9 0.9 0.00 0.00 0.00 42
20260503213902 67 130 0.9 1.7 0.00 0.00 0.00 41
20260503213400 67 88 0.9 1.7 0.00 0.00 0.00 41
20260503212856 67 131 0.9 1.7 0.00 0.00 0.00 42
20260503212354 68 133 0.0 0.9 0.00 0.00 0.00 41
20260503211851 67 137 0.0 1.7 0.00 0.00 0.00 42
20260503211348 67 127 0.9 1.7 0.00 0.00 0.00 41
20260503210843 68 144 1.7 2.6 0.00 0.00 0.00 40
20260503210340 68 141 0.0 0.9 0.00 0.00 0.00 41
20260503205835 68 151 1.7 1.7 0.00 0.00 0.00 41
20260503205332 68 130 0.0 0.9 0.00 0.00 0.00 39
20260503204828 68 140 0.0 0.9 0.00 0.00 0.00 38
20260503204326 69 106 0.9 2.6 0.00 0.00 0.00 37
20260503203823 69 140 0.9 1.7 0.00 0.00 0.00 40
20260503203320 69 141 0.0 0.9 0.00 0.00 0.00 40
20260503202817 69 137 0.0 1.7 0.00 0.00 0.00 39
20260503202315 69 146 0.9 1.7 0.00 0.00 0.00 38
20260503201813 69 116 0.9 0.9 0.00 0.00 0.00 39
20260503201310 69 113 0.9 0.9 0.00 0.00 0.00 37
20260503200808 70 141 0.0 1.7 0.00 0.00 0.00 36
20260503200303 69 143 0.9 1.7 0.00 0.00 0.00 37
20260503195801 69 187 1.7 1.7 0.00 0.00 0.00 38
20260503195257 69 141 1.7 1.7 0.00 0.00 0.00 38
20260503194755 69 121 0.9 1.7 0.00 0.00 0.00 38
20260503194250 69 184 1.7 3.5 0.00 0.00 0.00 40
20260503193746 69 138 0.9 1.7 0.00 0.00 0.00 37
20260503193243 68 149 0.9 2.6 0.00 0.00 0.00 41
20260503192738 69 154 0.9 1.7 0.00 0.00 0.00 40
20260503192234 69 135 0.9 1.7 0.00 0.00 0.00 38
20260503191731 69 149 0.9 1.7 0.00 0.00 0.00 39
20260503191228 69 168 1.7 1.7 0.00 0.00 0.00 39
20260503190725 69 152 1.7 1.7 0.00 0.00 0.00 41
20260503190221 68 110 0.9 1.7 0.00 0.00 0.00 39
20260503185719 68 150 1.7 2.6 0.00 0.00 0.00 41
20260503185214 68 149 0.9 1.7 0.00 0.00 0.00 40
20260503184709 69 146 0.0 1.7 0.00 0.00 0.00 40
20260503184206 68 156 0.9 1.7 0.00 0.00 0.00 39
20260503183702 68 140 1.7 1.7 0.00 0.00 0.00 42
20260503183159 67 138 0.9 1.7 0.00 0.00 0.00 43
20260503182657 67 141 1.7 1.7 0.00 0.00 0.00 40
20260503182156 66 135 0.0 2.6 0.00 0.00 0.00 41
20260503181652 67 203 1.7 2.6 0.00 0.00 0.00 41
20260503181149 66 165 1.7 1.7 0.00 0.00 0.00 41
20260503180646 66 148 0.9 1.7 0.00 0.00 0.00 45
20260503180144 67 150 0.9 1.7 0.00 0.00 0.00 42
20260503175640 66 97 0.9 1.7 0.00 0.00 0.00 41
20260503175138 66 139 0.0 1.7 0.00 0.00 0.00 42
20260503174634 65 95 0.0 2.6 0.00 0.00 0.00 41
20260503174132 65 175 0.9 2.6 0.00 0.00 0.00 44
20260503173626 65 138 0.0 1.7 0.00 0.00 0.00 41
20260503173123 64 128 0.0 2.6 0.00 0.00 0.00 42
20260503172620 65 138 0.0 0.0 0.00 0.00 0.00 41
20260503172118 66 155 0.9 1.7 0.00 0.00 0.00 42
20260503171614 65 100 0.9 1.7 0.00 0.00 0.00 42
20260503171111 64 199 0.9 1.7 0.00 0.00 0.00 42
20260503170608 63 132 0.9 1.7 0.00 0.00 0.00 43
20260503170105 64 129 0.9 2.6 0.00 0.00 0.00 44
20260503150954 59 129 0.0 1.7 0.00 0.00 0.00 49
20260503150450 59 148 0.9 1.7 0.00 0.00 0.00 49
20260503131344 53 127 0.0 0.9 0.00 0.00 0.00 60
20260503130841 53 119 0.9 2.6 0.00 0.00 0.00 59
20260503130338 53 105 0.9 2.6 0.00 0.00 0.00 60
20260503110732 43 129 0.0 0.0 0.00 0.00 0.00 88
20260503110229 42 129 0.0 0.0 0.00 0.00 0.00 87
20260503100155 43 129 0.0 0.0 0.00 0.00 0.00 85
20260503090115 44 130 0.0 0.0 0.00 0.00 0.00 84
20260503081550 45 130 0.0 0.0 0.00 0.00 0.00 80
20260503081048 45 130 0.0 0.0 0.00 0.00 0.00 80
20260503080544 45 130 0.0 0.0 0.00 0.00 0.00 82
20260503072518 45 130 0.0 0.0 0.00 0.00 0.00 80
20260503072015 45 130 0.0 0.0 0.00 0.00 0.00 80
20260503071511 45 130 0.0 0.0 0.00 0.00 0.00 80
20260503071008 45 130 0.0 0.0 0.00 0.00 0.00 80
20260503070505 46 130 0.0 0.0 0.00 0.00 0.00 77
20260503054928 49 130 0.0 0.0 0.00 0.00 0.00 65
20260503054425 49 130 0.0 0.0 0.00 0.00 0.00 63
20260503053923 49 130 0.0 0.0 0.00 0.00 0.00 64
20260503053420 49 130 0.0 0.0 0.00 0.00 0.00 64
20260503052916 49 130 0.0 0.0 0.00 0.00 0.00 64
20260503052414 50 130 0.0 0.0 0.00 0.00 0.00 68